Regional Weather Roundup
Issued by NWS Upton, NY

Current Version | Previous Version | Graphics & Text | Print | Product List | Glossary Off
Versions: 1 2 3 4 5 6 7 8 9 10 11 12 13 14 15 16 17 18 19 20 21 22 23 24 25 26 27

000
ASUS41 KOKX 151705
RWROKX

REGIONAL WEATHER ROUNDUP
NATIONAL WEATHER SERVICE NEW YORK NY
100 PM EDT TUE APR 15 2014

NOTE: "FAIR" INDICATES FEW OR NO CLOUDS BELOW 12,000 FEET WITH NO
SIGNIFICANT WEATHER AND/OR OBSTRUCTIONS TO VISIBILITY.

NYZ071-072-176-178-NJZ106-104-151800-
NEW YORK CITY METRO AREA


CITY           SKY/WX    TMP DP  RH WIND       PRES   REMARKS
CENTRAL PARK   CLOUDY    59  56  89 S12G25    29.62F
LAGUARDIA APRT CLOUDY    58  54  86 S29G43    29.60F
KENNEDY INTL   LGT RAIN  55  53  93 S29G39    29.63F FOG
NEWARK/LIBERTY LGT RAIN  65  63  93 S17G25    29.57F
TETERBORO      LGT RAIN  64  61  88 S15G25    29.56F
$$

NYZ177-179-078>081-151800-
LONG ISLAND NEW YORK

CITY           SKY/WX    TMP DP  RH WIND       PRES   REMARKS
FARMINGDALE    RAIN      57  56  96 S28G37    29.64F FOG
ISLIP          LGT RAIN  58  55  90 S25G39    29.65F FOG
SHIRLEY        RAIN      57  56  96 S28G37    29.69F VSB 1
WESTHAMPTON    LGT RAIN  55  54  94 S16G28    29.70F FOG
MONTAUK POINT    N/A     55  52  89 S17G30    29.75F
$$

NYZ052-065-067-151800-
HUDSON VALLEY

CITY           SKY/WX    TMP DP  RH WIND       PRES   REMARKS
WHITE PLAINS   DRZL/FOG  57  55  93 S21G35    29.61F VSB 3/4
NEWBURGH       LGT RAIN  64  61  88 S18G30    29.57F FOG
MONTGOMERY     HVY RAIN  63  60  90 SW15G24   29.54S FOG
POUGHKEEPSIE   LGT RAIN  64  60  87 S15G24    29.54F FOG
ALBANY         HVY RAIN  64  60  87 S23G37    29.48F FOG
$$

NJZ001-105-106-008-010-013-015-019>022-104-151800-
NEW JERSEY

CITY           SKY/WX    TMP DP  RH WIND       PRES   REMARKS
NEWARK/LIBERTY LGT RAIN  65  63  93 S17G25    29.57F
TETERBORO      LGT RAIN  64  61  88 S15G25    29.56F
CALDWELL       LGT RAIN  65  63  93 S13G22    29.56F
MORRISTOWN     RAIN      66  63  88 S15G26    29.56F
SOMERVILLE     LGT RAIN  66  63  90 S10       29.52F
LINDEN         DRIZZLE   66  64  91 S10G18    29.59F
SUSSEX         CLOUDY    65  61  87 SW7       29.53F
ANDOVER          N/A     63  60  90 VRB6      29.55F
TRENTON        LGT RAIN  65  62  90 S20G28    29.55F
MILLVILLE      LGT RAIN  64  62  93 S14G23    29.60F
ATLANTIC CITY  LGT RAIN  60  59  96 S23G45    29.64F
WRIGHTSTOWN    LGT RAIN  64  64  99 S22G35    29.55F
TOMS RIVER     CLOUDY    63  61  94 S16G37    29.62F
BELMAR         CLOUDY    63  57  82 S23G32    29.61F
$$

PAZ047>061-062-071-151800-
EASTERN PENNSYLVANIA

CITY           SKY/WX    TMP DP  RH WIND       PRES   REMARKS
PHILADELPHIA   LGT RAIN  68  62  81 S24G35    29.56F
ALLENTOWN      LGT RAIN  64  60  87 SW6       29.53F
SCRANTON       LGT RAIN  64  60  87 W9        29.51S
$$

CTZ002-004>006-009-010-012-RIZ004-006-007-MAZ004-011-015-151800-
SOUTHERN NEW ENGLAND
 IN CT

CITY           SKY/WX    TMP DP  RH WIND       PRES   REMARKS
BRADLEY INTL   RAIN      62  59  90 S21G31    29.61F FOG
HARTFORD       HVY RAIN  61  59  93 S18G30    29.63F VSB 1
DANBURY        LGT RAIN  60  58  92 S14G25    29.62F FOG
WTRBRY/OXFORD    N/A    N/A N/A N/A S20G35      N/A
BRIDGEPORT     LGT RAIN  59  57  93 S24G36    29.63F FOG
MERIDEN        LGT RAIN  61  58  90 S20G32    29.64F
NEW HAVEN      CLOUDY    57  55  93 S22G30    29.66F FOG
CHESTER        RAIN      57  57 100 S23G38    29.69F VSB 1
GROTON         LGT RAIN  52  52 100 S28       29.70F FOG
WILLIMANTIC    HVY RAIN  61  58  90 S22G29    29.68F FOG

 IN RI

CITY           SKY/WX    TMP DP  RH WIND       PRES   REMARKS
PROVIDENCE     LGT RAIN  63  55  75 S20G25    29.73F
BLOCK ISLAND   CLOUDY    55  48  76 S26G35    29.76F
WESTERLY       RAIN      52  50  93 S20G28    29.75F FOG

 IN MA

CITY           SKY/WX    TMP DP  RH WIND       PRES   REMARKS
BOSTON         CLOUDY    68  55  63 S36G48    29.69F
WORCESTER      LGT RAIN  59  57  93 SW24G38   29.66F FOG
WESTFIELD      LGT RAIN  63  60  90 S23G36    29.59F FOG
PROVINCETOWN   PTSUNNY   59  52  77 MISG      29.80F
NANTUCKET      PTSUNNY   57  50  77 S22G30    29.83F
$$

ANZ330-335-338-340-345-350-353-355-151800-
COASTAL MARINE OBSERVATIONS


STATION/POSITION TIME  SKY/WX   TEMP    WIND        PRES    VSBY  WAVE
                                AIR SEA DIR/SP/G                  HT/PER
                 (UTC)          (F)     (DEG/KT/KT) (MB)    (MI)  (FT/S)
NY HARB ENTRANCE 1700            50 43  210/ 16/ 25 1003.8
4S FIRE IS       1600               46                N/A           8/ 8
23SW MTP         1700            51 43  180/ 21/ 25 1006.6          8/ 9
HUDSON CANYON    1600            54 46  170/ 21/ 25 1007.8         10/ 8
EXECUTION ROCKS  1700            55 43  180/ 23/ 39   N/A
WESTERN LI SOUND 1700            57     170/ 23/ 35   N/A           3/ 3
CENTRAL LI SOUND 1600            54 42  190/ 25/ 35   N/A           4/ 4
EASTERN LI SOUND NOT AVBL
ROBBINS REEF     1700            54     160/ 22/ 23   N/A
$$


>>>>>>>>>>>>>>>>>>>>>>>>>>>> KEY <<<<<<<<<<<<<<<<<<<<<<<<<<<
>                                                          <
>     SKY/WX - SKY CONDITION/PRESENT WEATHER               <
>     TMP    - TEMPERATURE IN FAHRENHEIT                   <
>     DP     - DEWPOINT IN FAHRENHEIT                      <
>     RH     - RELATIVE HUMIDITY IN PERCENT                <
>     WIND   - DIRECTION AND SPEED IN MPH                  <
>     PRES   - MEAN SEA LEVEL PRESSURE IN INCHES OF HG     <
>     WCI    - WIND CHILL INDEX                            <
>     VSB    - VISIBILITY IN MILES                         <
>     HX     - HEAT INDEX                                  <
>     TC     - TEMPERATURE IN CELSIUS                      <
>     VRB    - VARIABLE WIND DIRECTION                     <
>                                                          <
>>>>>>>>>>>>>>>>>>>>>>>>>>>> KEY <<<<<<<<<<<<<<<<<<<<<<<<<<<





USA.gov is the U.S. government's official web portal to all federal, state and local government web resources and services.